[[[{"header":{"parameterUnit":"kt","parameterCategory":2,"dx":1,"dy":1,"la1":30.253999710083008,"la2":30.299108505249023,"lo1":-89.0895004272461,"lo2":-89.04439544677734,"nx":28,"ny":28,"refTime":"2022-09-21T21:00:00:Z","depth":0,"parameterNumber":1,"parameterNumberName":"U-component_of_WINDS"},"data":[3.2591,3.275,3.2815,3.3026,3.3121,3.3277,3.3354,3.346,3.3561,3.3756,3.3879,3.3963,3.4091,3.4255,3.4393,3.4428,3.448,3.4488,3.4526,3.4434,3.4426,3.4418,3.4382,3.4499,3.4499,3.4612,3.4613,3.4613,3.2512,3.2607,3.2739,3.2911,3.3024,3.3056,3.3196,3.3288,3.3427,3.3555,3.3681,3.3858,3.4007,3.4137,3.4292,3.4368,3.4392,3.4405,3.4399,3.4418,3.4323,3.4285,3.4383,3.4383,3.4383,3.4383,3.4383,3.4383,3.2387,3.248,3.2622,3.2767,3.2872,3.2987,3.3087,3.3188,3.3318,3.3488,3.3543,3.3703,3.3844,3.4065,3.4157,3.4283,3.4281,3.4317,3.4325,3.4332,3.4328,3.415,3.4314,3.4314,3.4314,3.4314,3.4314,0,3.2314,3.2362,3.2494,3.2645,3.2755,3.2879,3.3004,3.3069,3.3197,3.33,3.3455,3.3556,3.3755,3.3909,3.4071,3.416,3.4204,3.4218,3.4242,3.4215,3.4169,3.4191,3.4029,3.4213,3.4212,3.4212,3.4211,3.4211,3.2189,3.2292,3.2474,3.2558,3.2643,3.2777,3.2871,3.2977,3.3071,3.3242,3.3321,3.3477,3.3607,3.3847,3.3965,3.4116,3.4139,3.4201,3.4162,3.4131,3.4136,3.4127,3.4137,3.4205,3.4206,3.4206,3.4207,0,3.2111,3.222,3.2401,3.2573,3.2619,3.2722,3.2869,3.2969,3.3057,3.3206,3.3247,3.3385,3.3537,3.3647,3.3845,3.3897,3.4067,3.4087,3.4017,3.4026,3.409,3.4081,3.4287,3.4318,3.4202,3.4203,3.4204,0,3.2046,3.2178,3.2331,3.2431,3.2581,3.2684,3.283,3.292,3.3045,3.3163,3.3232,3.3341,3.3466,3.3592,3.3671,3.383,3.3868,3.3917,3.3935,3.3909,3.3902,3.396,3.3952,3.3979,3.3978,3.3977,3.3976,0,3.191,3.215,3.2313,3.2385,3.2582,3.2657,3.2743,3.2884,3.2976,3.3113,3.3174,3.3328,3.3411,3.3529,3.3628,3.3596,3.3826,3.3804,3.3876,3.3873,3.3919,3.3914,3.4071,3.3974,3.3974,3.3973,3.3973,0,3.1873,3.2009,3.2231,3.2396,3.2455,3.2564,3.272,3.2839,3.2983,3.3039,3.3149,3.3208,3.3358,3.3327,3.3536,3.3466,3.3545,3.3607,3.3614,3.3632,3.3593,3.3663,3.3804,3.3821,3.365,3.3648,3.3645,0,3.1686,3.194,3.203,3.2239,3.2371,3.2437,3.2561,3.2686,3.2772,3.2896,3.2992,3.3134,3.3135,3.3195,3.3285,3.3388,3.3478,3.338,3.3557,3.3562,3.3512,3.3644,3.3636,3.3761,3.3613,3.3616,3.3619,0,3.1554,3.1794,3.1825,3.1911,3.2095,3.2207,3.2349,3.2513,3.259,3.2727,3.2847,3.3054,3.3061,3.3161,3.3226,3.3313,3.3421,3.331,3.3316,3.3323,3.3607,3.3597,3.3618,3.3445,3.3449,3.3453,3.3593,0,3.1467,3.161,3.17,3.1889,3.1994,3.2133,3.2249,3.2344,3.2394,3.2481,3.2663,3.2799,3.2968,3.3023,3.3075,3.3239,3.3229,3.3237,3.3213,3.33,3.3349,3.3369,3.313,3.313,3.3131,3.3131,0,0,3.1259,3.1466,3.1562,3.1703,3.1796,3.1864,3.2002,3.2102,3.2302,3.2365,3.2353,3.2662,3.2774,3.2983,3.3019,3.3089,3.3129,3.3095,3.3259,3.3272,3.3286,3.3336,3.3355,3.3131,3.3131,3.3131,3.3131,0,3.125,3.1361,3.1496,3.1603,3.1765,3.1851,3.1884,3.2057,3.2119,3.23,3.2354,3.2478,3.2725,3.2834,3.2921,3.3073,3.3107,3.3117,3.3156,3.3255,3.3269,3.3281,3.3332,3.335,3.3131,3.3131,3.3131,0,3.1139,3.1266,3.1344,3.1562,3.1669,3.1806,3.1809,3.1954,3.2056,3.2125,3.2303,3.2395,3.2553,3.2736,3.2824,3.2816,3.3079,3.3019,3.3022,3.3034,3.3135,3.3152,3.3166,3.2973,3.2972,3.2971,0,0,3.1115,3.125,3.1419,3.1569,3.1633,3.1763,3.1848,3.1908,3.2047,3.2102,3.2221,3.2355,3.25,3.2592,3.2734,3.292,3.296,3.2995,3.3002,3.3008,3.3022,3.3125,3.3141,3.2967,3.2967,3.2967,0,0,3.1105,3.1307,3.1333,3.1522,3.1651,3.1829,3.1916,3.1954,3.2093,3.209,3.22,3.2241,3.2415,3.2504,3.2437,3.2728,3.2703,3.2721,3.2663,3.2674,3.2681,3.2655,3.246,0,0,0,0,0,3.1155,3.1281,3.1303,3.1352,3.163,3.1817,3.1853,3.1945,3.1924,3.1991,3.2095,3.2127,3.249,3.2433,3.2481,3.2554,3.2916,3.2925,3.2934,3.2903,3.2913,3.2922,0,0,0,0,0,0,3.1176,3.1235,3.13,3.1482,3.1545,3.1813,3.1797,3.1826,3.1919,3.1922,3.2106,3.2133,3.2216,3.2415,3.2457,3.2524,3.2446,3.292,3.2927,3.2934,3.2906,3.2915,3.2922,0,0,0,0,0,3.1192,3.124,3.1661,3.1481,3.1536,3.1688,3.1793,3.1817,3.1891,3.2054,3.2082,3.1952,3.2216,3.2258,3.244,3.2503,3.2418,3.2434,3.2925,3.2931,3.2936,3.291,0,0,0,0,0,0,3.1204,3.1264,3.1674,3.1694,3.144,3.1675,3.1715,3.1809,3.2019,3.2048,3.1905,3.1905,3.2217,3.2249,3.2281,3.249,3.2395,3.2411,3.242,3.2929,3.2934,3.2938,0,0,0,0,0,0,3.1239,3.128,3.1684,3.1628,3.1642,3.1663,3.1698,3.1868,3.2021,3.1859,3.1865,3.1903,3.217,3.2244,3.2269,3.253,3.2378,3.2392,3.2403,3.2409,3.2933,3.2937,0,0,0,0,0,0,3.1258,3.1294,3.1623,3.1634,3.1647,3.1881,3.1815,3.2094,3.197,3.1848,3.1962,3.1958,3.2164,3.2191,3.226,3.2511,3.2525,3.2378,3.2388,3.2395,3.24,0,0,0,0,0,0,0,3.1274,3.101,3.1554,3.164,3.1651,3.1881,3.1886,3.1892,3.1969,3.1966,3.1962,3.1959,3.2293,3.2309,3.2326,3.2495,0,0,3.2377,3.2384,0,0,0,0,0,0,0,0,3.0997,3.1007,3.1554,3.1558,3.1563,3.1882,3.1886,3.1891,3.1969,3.1966,3.1963,3.1961,3.2298,3.2311,3.2324,0,0,0,0,0,0,0,0,0,0,0,0,0,0,0,3.1555,3.1558,0,3.1882,3.1886,3.189,3.1968,3.1966,3.1964,3.1962,3.2301,3.2312,3.2323,0,0,0,0,0,0,0,0,0,0,0,0,0,0,0,0,0,0,0,0,0,0,0,0,0,0,0,0,0,0,0,0,0,0,0,0,0,0,0,0,0,0,0,0,0,0,0,0,0,0,0,0,0,0,0,0,0,0,0,0,0,0,0,0,0,0,0,0,0]}],[{"header":{"parameterUnit":"kt","parameterCategory":2,"dx":1,"dy":1,"la1":30.253999710083008,"la2":30.299108505249023,"lo1":-89.0895004272461,"lo2":-89.04439544677734,"nx":28,"ny":28,"refTime":"2022-09-21T21:00:00:Z","depth":0,"parameterNumber":2,"parameterNumberName":"V-component_of_WINDS"},"data":[5.8011,5.802,5.7998,5.7996,5.7976,5.797,5.796,5.7945,5.7927,5.7916,5.7905,5.7881,5.7852,5.7832,5.7817,5.7806,5.78,5.7819,5.7803,5.7741,5.7731,5.7721,5.7717,5.7819,5.7819,5.7868,5.7869,5.7869,5.7964,5.7944,5.7938,5.7917,5.791,5.7878,5.7857,5.7853,5.7848,5.7827,5.7815,5.7803,5.779,5.7753,5.7736,5.7736,5.7718,5.7733,5.773,5.7726,5.766,5.7656,5.7747,5.7747,5.7747,5.7747,5.7747,5.7747,5.7872,5.7879,5.7853,5.7845,5.7829,5.7814,5.7815,5.7788,5.778,5.7761,5.7736,5.7729,5.7701,5.7669,5.7652,5.7645,5.7624,5.7632,5.7633,5.7634,5.7638,5.7564,5.7641,5.7641,5.764,5.764,5.764,0,5.7796,5.7777,5.777,5.7756,5.775,5.7737,5.772,5.7721,5.7671,5.7667,5.7658,5.7649,5.763,5.7617,5.7596,5.7576,5.7539,5.7534,5.7539,5.7549,5.756,5.755,5.7441,5.7532,5.7531,5.753,5.7529,5.7529,5.7698,5.7711,5.7673,5.7671,5.7657,5.7655,5.7648,5.7604,5.7598,5.7571,5.7578,5.7566,5.7554,5.7543,5.7508,5.7493,5.7474,5.7511,5.7471,5.7481,5.7469,5.7468,5.7467,5.7518,5.7519,5.7521,5.7522,0,5.7644,5.7608,5.762,5.7581,5.7572,5.7586,5.7552,5.7557,5.7529,5.7531,5.7529,5.7485,5.7477,5.7436,5.7419,5.7397,5.7414,5.7398,5.7422,5.7415,5.7441,5.7438,5.7539,5.7549,5.7446,5.7447,5.7448,0,5.7544,5.7562,5.7506,5.7515,5.7533,5.7488,5.7506,5.7484,5.7461,5.7462,5.7416,5.7418,5.7366,5.7362,5.733,5.7337,5.7335,5.7318,5.7308,5.732,5.7322,5.7313,5.7306,5.7292,5.7292,5.7291,5.7291,0,5.7461,5.7454,5.7468,5.746,5.7421,5.7428,5.7412,5.7387,5.7381,5.7367,5.7362,5.7349,5.7341,5.733,5.729,5.7264,5.7299,5.7255,5.728,5.7281,5.7288,5.7287,5.7391,5.729,5.729,5.729,5.729,0,5.7373,5.7362,5.739,5.7355,5.7355,5.7365,5.7349,5.7349,5.7325,5.7306,5.7295,5.7258,5.7265,5.7224,5.723,5.7207,5.7201,5.7186,5.7187,5.7182,5.7136,5.7195,5.7301,5.7308,5.7181,5.718,5.7179,0,5.7285,5.7305,5.7266,5.7294,5.7297,5.7243,5.7253,5.7235,5.7211,5.7208,5.7181,5.7179,5.714,5.7133,5.7142,5.7113,5.7142,5.7108,5.7099,5.7099,5.7103,5.7201,5.7225,5.7283,5.7167,5.7168,5.7169,0,5.7212,5.7166,5.7174,5.7162,5.7132,5.7135,5.7148,5.7136,5.7136,5.7122,5.7128,5.7127,5.7096,5.7086,5.7056,5.7067,5.7121,5.7032,5.7031,5.7046,5.7159,5.7181,5.7191,5.7097,5.7099,5.71,5.716,0,5.708,5.7087,5.7108,5.7086,5.7083,5.71,5.7058,5.7059,5.703,5.7004,5.7016,5.6991,5.6979,5.6981,5.6953,5.6994,5.698,5.6948,5.6902,5.6969,5.6987,5.6995,5.6878,5.6877,5.6876,5.6874,0,0,5.7002,5.7011,5.6969,5.6981,5.6975,5.6919,5.694,5.6928,5.6906,5.6901,5.6877,5.687,5.6851,5.6869,5.6887,5.6884,5.6885,5.6865,5.6938,5.6946,5.6952,5.6973,5.6982,5.6872,5.6872,5.6871,5.6871,0,5.6945,5.693,5.6953,5.6939,5.6916,5.6889,5.6894,5.6862,5.6846,5.686,5.6812,5.6814,5.6813,5.6797,5.6789,5.6863,5.6825,5.6863,5.6915,5.6927,5.6936,5.6944,5.6966,5.6975,5.6868,5.6868,5.6868,0,5.6862,5.6839,5.6847,5.6834,5.6818,5.6824,5.6766,5.6776,5.6779,5.6718,5.6731,5.6712,5.6689,5.6714,5.6723,5.67,5.6772,5.6744,5.6751,5.675,5.676,5.6771,5.6781,5.665,5.665,5.6649,0,0,5.6818,5.6825,5.6786,5.6818,5.6812,5.6771,5.6771,5.6741,5.6723,5.6716,5.6691,5.6673,5.6671,5.667,5.6666,5.6701,5.669,5.6719,5.6729,5.6738,5.6742,5.6753,5.6764,5.6647,5.6647,5.6647,0,0,5.6796,5.6753,5.6727,5.6759,5.6744,5.6707,5.6727,5.6694,5.6687,5.668,5.663,5.6623,5.6646,5.6629,5.6604,5.6649,5.6605,5.661,5.6658,5.6671,5.6681,5.6683,5.6541,0,0,0,0,0,5.6716,5.6758,5.6735,5.6734,5.6718,5.672,5.6718,5.6678,5.6647,5.6663,5.6636,5.6598,5.6605,5.6582,5.6581,5.6608,5.6618,5.6623,5.6628,5.6698,5.6712,5.6723,0,0,0,0,0,0,5.6715,5.6715,5.6734,5.67,5.6695,5.6719,5.6657,5.6647,5.6644,5.6636,5.6604,5.6597,5.6562,5.6579,5.6579,5.6606,5.654,5.662,5.6625,5.6628,5.6703,5.6714,5.6723,0,0,0,0,0,5.6715,5.6714,5.6699,5.6698,5.6695,5.6652,5.6655,5.6646,5.6643,5.6602,5.6593,5.6613,5.6564,5.6562,5.6579,5.6607,5.654,5.654,5.6623,5.6626,5.6629,5.6708,0,0,0,0,0,0,5.6714,5.6706,5.6697,5.6694,5.668,5.665,5.6644,5.6646,5.6608,5.66,5.6608,5.6602,5.6566,5.6564,5.6562,5.6609,5.654,5.654,5.654,5.6626,5.6628,5.6631,0,0,0,0,0,0,5.6706,5.6704,5.6696,5.6675,5.6669,5.6648,5.6643,5.6652,5.6608,5.6616,5.661,5.6606,5.6569,5.6566,5.6564,5.658,5.6539,5.654,5.654,5.654,5.6628,5.663,0,0,0,0,0,0,5.6704,5.6703,5.6675,5.6671,5.6666,5.6633,5.6655,5.664,5.6591,5.6618,5.6585,5.6583,5.6571,5.6569,5.6566,5.6583,5.6581,5.6539,5.654,5.654,5.654,0,0,0,0,0,0,0,5.6703,5.6723,5.6713,5.6668,5.6663,5.667,5.6669,5.6668,5.6591,5.6588,5.6586,5.6584,5.6538,5.6538,5.6539,5.6585,0,0,5.6539,5.6539,0,0,0,0,0,0,0,0,5.6723,5.6723,5.6713,5.6713,5.6712,5.667,5.6669,5.6669,5.659,5.6588,5.6586,5.6585,5.6538,5.6539,5.6539,0,0,0,0,0,0,0,0,0,0,0,0,0,0,0,5.6713,5.6713,0,5.667,5.6669,5.6669,5.659,5.6588,5.6587,5.6585,5.6538,5.6539,5.6539,0,0,0,0,0,0,0,0,0,0,0,0,0,0,0,0,0,0,0,0,0,0,0,0,0,0,0,0,0,0,0,0,0,0,0,0,0,0,0,0,0,0,0,0,0,0,0,0,0,0,0,0,0,0,0,0,0,0,0,0,0,0,0,0,0,0,0,0,0]}]]]